| time (UTC) | temp F | wind direction | speed MPH | gust MPH | rain 1hr in | rain 24hr in | rain mn in | humidity % | barometer mb |
| 20260508011607 | 52 | 101 | 0.0 | 4.0 | 0.00 | 0.05 | 0.01 | 56 | 1011.9 |
| 20260508010100 | 53 | 321 | 0.0 | 1.0 | 0.00 | 0.05 | 0.01 | 58 | 1011.5 |
| 20260508004602 | 53 | 54 | 0.0 | 3.0 | 0.00 | 0.05 | 0.01 | 57 | 1011.3 |
| 20260508003058 | 55 | 85 | 0.0 | 2.0 | 0.00 | 0.05 | 0.01 | 57 | 1011.0 |
| 20260508001559 | 56 | 259 | 0.0 | 2.0 | 0.00 | 0.05 | 0.01 | 56 | 1010.7 |
| 20260508000057 | 58 | 359 | 0.0 | 5.0 | 0.00 | 0.05 | 0.01 | 55 | 1010.3 |
| 20260507234558 | 59 | 319 | 0.0 | 3.0 | 0.00 | 0.05 | 0.01 | 57 | 1009.9 |
| 20260507233059 | 60 | 273 | 0.0 | 5.0 | 0.00 | 0.05 | 0.01 | 75 | 1009.8 |
| 20260507231552 | 60 | 75 | 0.0 | 3.0 | 0.00 | 0.05 | 0.01 | 78 | 1009.4 |
| 20260507230107 | 63 | 250 | 0.0 | 4.0 | 0.00 | 0.05 | 0.01 | 73 | 1009.2 |
| 20260507224553 | 63 | 222 | 3.0 | 7.0 | 0.00 | 0.05 | 0.01 | 74 | 1009.0 |
| 20260507223051 | 62 | 195 | 2.0 | 7.0 | 0.00 | 0.05 | 0.01 | 75 | 1008.8 |
| 20260507221550 | 63 | 211 | 3.0 | 7.0 | 0.00 | 0.05 | 0.01 | 74 | 1008.6 |
| 20260507220054 | 64 | 238 | 2.0 | 7.0 | 0.00 | 0.05 | 0.01 | 72 | 1008.4 |
| 20260507214548 | 64 | 257 | 3.0 | 7.0 | 0.00 | 0.05 | 0.01 | 73 | 1008.2 |
| 20260507213048 | 64 | 260 | 6.0 | 11.0 | 0.00 | 0.05 | 0.01 | 73 | 1008.2 |
| 20260507211546 | 62 | 188 | 2.0 | 8.0 | 0.00 | 0.05 | 0.01 | 76 | 1008.2 |
| 20260507210056 | 62 | 242 | 6.0 | 9.0 | 0.00 | 0.05 | 0.01 | 74 | 1008.2 |
| 20260507204643 | 62 | 205 | 4.0 | 9.0 | 0.00 | 0.05 | 0.01 | 77 | 1008.2 |
| 20260507203107 | 60 | 224 | 5.0 | 13.0 | 0.00 | 0.05 | 0.01 | 79 | 1008.5 |
| 20260507201539 | 59 | 174 | 3.0 | 7.0 | 0.00 | 0.05 | 0.01 | 80 | 1008.4 |
| 20260507200041 | 58 | 167 | 1.0 | 7.0 | 0.00 | 0.05 | 0.01 | 81 | 1008.7 |
| 20260507194538 | 59 | 239 | 4.0 | 8.0 | 0.00 | 0.05 | 0.01 | 79 | 1009.0 |
| 20260507193039 | 59 | 213 | 5.0 | 10.0 | 0.00 | 0.05 | 0.01 | 79 | 1009.1 |
| 20260507191539 | 58 | 254 | 4.0 | 12.0 | 0.00 | 0.05 | 0.01 | 80 | 1009.4 |
| 20260507190034 | 58 | 210 | 2.0 | 7.0 | 0.00 | 0.05 | 0.01 | 81 | 1009.6 |
| 20260507184532 | 56 | 244 | 4.0 | 7.0 | 0.00 | 0.05 | 0.01 | 82 | 1009.7 |
| 20260507183030 | 56 | 229 | 2.0 | 7.0 | 0.00 | 0.05 | 0.01 | 81 | 1009.8 |
| 20260507181528 | 57 | 206 | 4.0 | 8.0 | 0.00 | 0.05 | 0.01 | 79 | 1009.9 |
| 20260507180034 | 57 | 172 | 1.0 | 5.0 | 0.00 | 0.05 | 0.01 | 83 | 1010.0 |
| 20260507174536 | 56 | 188 | 4.0 | 6.0 | 0.00 | 0.05 | 0.01 | 82 | 1010.1 |
| 20260507173048 | 56 | 207 | 2.0 | 8.0 | 0.00 | 0.05 | 0.01 | 84 | 1010.3 |
| 20260507171526 | 54 | 181 | 1.0 | 5.0 | 0.01 | 0.05 | 0.01 | 87 | 1010.4 |
| 20260507170024 | 54 | 228 | 3.0 | 7.0 | 0.01 | 0.05 | 0.01 | 85 | 1010.9 |
| 20260507164522 | 54 | 230 | 3.0 | 7.0 | 0.01 | 0.05 | 0.01 | 86 | 1010.8 |
| 20260507163025 | 53 | 163 | 1.0 | 3.0 | 0.01 | 0.05 | 0.01 | 83 | 1011.1 |
| 20260507161521 | 54 | 212 | 0.0 | 4.0 | 0.00 | 0.04 | 0.00 | 83 | 1011.4 |
| 20260507160019 | 53 | 127 | 0.0 | 1.0 | 0.00 | 0.04 | 0.00 | 86 | 1011.4 |
| 20260507154518 | 52 | 94 | 0.0 | 4.0 | 0.00 | 0.04 | 0.00 | 87 | 1011.7 |
| 20260507153017 | 51 | 73 | 1.0 | 3.0 | 0.00 | 0.04 | 0.00 | 85 | 1011.9 |
| 20260507151516 | 52 | 124 | 0.0 | 3.0 | 0.00 | 0.04 | 0.00 | 86 | 1012.1 |
| 20260507150023 | 51 | 22 | 0.0 | 1.0 | 0.00 | 0.04 | 0.00 | 86 | 1011.9 |
| 20260507144516 | 51 | 45 | 0.0 | 3.0 | 0.00 | 0.04 | 0.00 | 86 | 1011.9 |
| 20260507143015 | 51 | 63 | 1.0 | 4.0 | 0.00 | 0.04 | 0.00 | 84 | 1011.8 |
| 20260507141515 | 51 | 79 | 0.0 | 2.0 | 0.00 | 0.04 | 0.00 | 85 | 1012.2 |
| 20260507140014 | 51 | 82 | 1.0 | 4.0 | 0.00 | 0.04 | 0.00 | 84 | 1012.4 |
| 20260507134514 | 51 | 67 | 1.0 | 4.0 | 0.00 | 0.05 | 0.00 | 85 | 1012.4 |
| 20260507133018 | 51 | 82 | 0.0 | 3.0 | 0.00 | 0.05 | 0.00 | 85 | 1012.4 |
| 20260507131515 | 51 | 68 | 1.0 | 3.0 | 0.00 | 0.05 | 0.00 | 86 | 1012.4 |
| 20260507130012 | 51 | 89 | 1.0 | 2.0 | 0.00 | 0.05 | 0.00 | 86 | 1012.2 |
| 20260507124511 | 51 | 328 | 0.0 | 2.0 | 0.00 | 0.06 | 0.00 | 86 | 1012.5 |
| 20260507123013 | 51 | 70 | 2.0 | 4.0 | 0.00 | 0.06 | 0.00 | 85 | 1012.3 |
| 20260507121508 | 51 | 65 | 0.0 | 3.0 | 0.00 | 0.06 | 0.00 | 86 | 1012.2 |
| 20260507120006 | 51 | 67 | 0.0 | 2.0 | 0.00 | 0.06 | 0.00 | 86 | 1012.1 |
| 20260507114506 | 51 | 106 | 0.0 | 4.0 | 0.00 | 0.07 | 0.00 | 86 | 1011.9 |
| 20260507113010 | 51 | 77 | 0.0 | 2.0 | 0.00 | 0.07 | 0.00 | 88 | 1011.9 |
| 20260507111504 | 51 | 38 | 1.0 | 3.0 | 0.00 | 0.07 | 0.00 | 88 | 1011.7 |
| 20260507110002 | 51 | 2 | 0.0 | 3.0 | 0.00 | 0.07 | 0.00 | 89 | 1011.5 |
| 20260507104605 | 51 | 73 | 1.0 | 3.0 | 0.00 | 0.07 | 0.00 | 89 | 1011.4 |
| 20260507103100 | 51 | 51 | 1.0 | 4.0 | 0.00 | 0.07 | 0.00 | 89 | 1011.1 |
| 20260507101601 | 51 | 66 | 1.0 | 5.0 | 0.00 | 0.07 | 0.00 | 89 | 1011.1 |
| 20260507100057 | 52 | 86 | 1.0 | 4.0 | 0.00 | 0.07 | 0.00 | 90 | 1011.1 |
| 20260507094601 | 52 | 75 | 0.0 | 3.0 | 0.00 | 0.07 | 0.00 | 90 | 1011.0 |
| 20260507093055 | 52 | 66 | 1.0 | 5.0 | 0.00 | 0.07 | 0.00 | 90 | 1011.0 |
| 20260507091553 | 53 | 57 | 1.0 | 7.0 | 0.00 | 0.07 | 0.00 | 91 | 1010.7 |
| 20260507090050 | 53 | 230 | 1.0 | 5.0 | 0.00 | 0.07 | 0.00 | 92 | 1010.9 |
| 20260507084549 | 53 | 84 | 0.0 | 7.0 | 0.00 | 0.07 | 0.00 | 92 | 1010.8 |
| 20260507083047 | 53 | 92 | 0.0 | 3.0 | 0.00 | 0.07 | 0.00 | 92 | 1010.6 |
| 20260507081545 | 54 | 130 | 2.0 | 6.0 | 0.00 | 0.07 | 0.00 | 92 | 1010.3 |
| 20260507080044 | 55 | 78 | 1.0 | 5.0 | 0.00 | 0.07 | 0.00 | 92 | 1010.5 |
| 20260507074546 | 55 | 51 | 2.0 | 6.0 | 0.00 | 0.07 | 0.00 | 92 | 1010.3 |
| 20260507073043 | 56 | 53 | 1.0 | 5.0 | 0.00 | 0.07 | 0.00 | 92 | 1010.6 |
| 20260507071536 | 58 | 83 | 2.0 | 5.0 | 0.00 | 0.07 | 0.00 | 92 | 1010.3 |
| 20260507070042 | 59 | 213 | 0.0 | 1.0 | 0.00 | 0.07 | 0.00 | 91 | 1009.6 |
| 20260507064530 | 59 | 212 | 1.0 | 2.0 | 0.00 | 0.07 | 0.00 | 92 | 1009.8 |
| 20260507063028 | 59 | 221 | 0.0 | 1.0 | 0.00 | 0.07 | 0.00 | 91 | 1009.6 |
| 20260507061526 | 60 | 221 | 1.0 | 4.0 | 0.00 | 0.07 | 0.00 | 90 | 1009.9 |
| 20260507060026 | 60 | 179 | 2.0 | 4.0 | 0.00 | 0.07 | 0.00 | 88 | 1009.8 |
| 20260507054525 | 60 | 212 | 0.0 | 3.0 | 0.00 | 0.07 | 0.00 | 88 | 1010.2 |
| 20260507053024 | 61 | 229 | 2.0 | 11.0 | 0.00 | 0.07 | 0.00 | 87 | 1010.2 |
| 20260507051521 | 60 | 278 | 0.0 | 1.0 | 0.00 | 0.07 | 0.00 | 91 | 1010.3 |
| 20260507050027 | 60 | 108 | 0.0 | 3.0 | 0.00 | 0.07 | 0.00 | 92 | 1010.0 |
| 20260507044518 | 59 | 247 | 1.0 | 3.0 | 0.00 | 0.07 | 0.00 | 92 | 1009.4 |
| 20260507043017 | 60 | 253 | 1.0 | 9.0 | 0.04 | 0.07 | 0.00 | 91 | 1008.7 |
| 20260507041513 | 61 | 167 | 1.0 | 3.0 | 0.04 | 0.07 | 0.00 | 91 | 1009.3 |
| 20260507040009 | 61 | 277 | 2.0 | 5.0 | 0.04 | 0.07 | 0.00 | 91 | 1009.9 |
| 20260507034509 | 62 | 234 | 4.0 | 9.0 | 0.03 | 0.06 | 0.06 | 88 | 1009.5 |
| 20260507033010 | 63 | 262 | 4.0 | 9.0 | 0.00 | 0.03 | 0.03 | 87 | 1010.5 |
| 20260507031507 | 63 | 274 | 6.0 | 10.0 | 0.00 | 0.03 | 0.03 | 86 | 1010.2 |
| 20260507030007 | 63 | 293 | 4.0 | 8.0 | 0.00 | 0.03 | 0.03 | 87 | 1010.2 |
| 20260507024509 | 64 | 212 | 0.0 | 3.0 | 0.00 | 0.03 | 0.03 | 86 | 1009.5 |
| 20260507023006 | 64 | 243 | 2.0 | 7.0 | 0.00 | 0.03 | 0.03 | 85 | 1009.4 |
| 20260507021505 | 65 | 241 | 5.0 | 11.0 | 0.00 | 0.03 | 0.03 | 84 | 1009.1 |
| 20260507020008 | 66 | 1 | 1.0 | 5.0 | 0.00 | 0.03 | 0.03 | 84 | 1009.6 |
| 20260507014508 | 66 | 287 | 1.0 | 3.0 | 0.00 | 0.03 | 0.03 | 84 | 1009.0 |
| 20260507013004 | 65 | 245 | 4.0 | 9.0 | 0.00 | 0.03 | 0.03 | 84 | 1008.9 |